User: anonymous   Login
Location: San Martino di Castrozza
(46.2667°N, 11.8000°E)
Time: 13:29:10
(UTC+00:00)
Language:

Cosmos 1943 Rocket - Orbit

View from above orbital plane
View from above orbital plane
View from above satellite
View from above satellite

Ground track
Ground track

The orbit data is extracted from the following two-line orbital elements,

1 19120U 88039B   21170.54177108 -.00000080  00000-0 -15281-4 0  9996
2 19120  71.0134 112.8435 0019787 105.9053 254.4255 14.19220644713731
Epoch (UTC): 19 June 2021 13:00:09
Eccentricity: 0.0019787
inclination: 71.0134°
perigee height: 814 km
apogee height: 842 km
right ascension of ascending node: 112.8435°
argument of perigee: 105.9053°
revolutions per day: 14.19220644
mean anomaly at epoch: 254.4255°
orbit number at epoch: 71373

The dashed part of the orbit path shows where the satellite is in the earth's shadow,  

DLR